Fort Sill, OK

6:13 PM CDT on April 28, 2017 (GMT -0500)
Post Army Air Field

Weather History for KFSI - May, 2014

Change the Weather History Date:

Monday, May 26, 2014

  Actual Average Record
Temperature  
Mean Temperature 73 °F -  
Max Temperature 83 °F 85 °F 100 °F (1963)
Min Temperature 62 °F 61 °F 48 °F (1992)
Cooling Degree Days 8    
Growing Degree Days 23 (Base 50)    
Moisture  
Dew Point 63 °F    
Average Humidity 81    
Maximum Humidity 100    
Minimum Humidity 48    
Precipitation  
Precipitation 0.00 in - - ()
Sea Level Pressure  
Sea Level Pressure 29.97 in    
Wind  
Wind Speed 7 mph (SSE)    
Max Wind Speed 17 mph    
Max Gust Speed 26 mph    
Visibility 8 miles    
Events Rain , Thunderstorm    
Averages and records for this station are not official NWS values.
T = Trace of Precipitation, MM = Missing Value Source: NWS Daily Summary

Daily Weather History Graph

Daily Weather History Graph

Search for Another Location

Airport or City:

Trip Planner

Search our weather history database for the weather conditions in past years. The results will help you decide how hot, cold, wet, or windy it might be!

Date:

Astronomy

May. 26, 2014 Rise Set
Actual Time 6:24 AM CDT 8:37 PM CDT
Civil Twilight 5:55 AM CDT 9:06 PM CDT
Nautical Twilight 5:20 AM CDT 9:41 PM CDT
Astronomical Twilight 4:42 AM CDT 10:19 PM CDT
Moon 5:00 AM CDT (5/26) 6:46 PM CDT (5/26)
Length of Visible Light 15h 10m
Length of Day
14h 13m
Waning Crescent, 5% of the Moon is Illuminated
May 26
Waning Crescent
May 28
New
Jun 5
First Quarter
Jun 12
Full
Jun 19
Last Quarter

Hourly Weather History & Observations

Time (CDT) Temp. Heat Index Dew Point Humidity Pressure Visibility Wind Dir Wind Speed Gust Speed Precip Events Conditions
12:58 AM 66.2 °F - 59.7 °F 80% 29.97 in 10.0 mi SSW 5.8 mph - N/A   Clear
1:58 AM 65.7 °F - 59.5 °F 81% 29.96 in 10.0 mi SSW 6.9 mph - N/A   Clear
2:58 AM 64.4 °F - 59.9 °F 85% 29.97 in 10.0 mi South 9.2 mph - N/A   Clear
3:58 AM 65.1 °F - 60.4 °F 85% 29.96 in 10.0 mi South 6.9 mph - N/A   Clear
4:58 AM 63.3 °F - 60.3 °F 90% 29.96 in 10.0 mi Calm Calm - N/A   Partly Cloudy
5:58 AM 62.6 °F - 60.3 °F 92% 29.97 in 10.0 mi SSE 1.2 mph - N/A   Scattered Clouds
6:58 AM 63.7 °F - 62.4 °F 96% 29.98 in 10.0 mi North 1.2 mph - N/A   Overcast
7:58 AM 66.2 °F - 63.0 °F 89% 30.00 in 10.0 mi South 3.5 mph - N/A   Overcast
8:58 AM 69.3 °F - 63.7 °F 82% 30.01 in 10.0 mi SSE 9.2 mph - N/A   Scattered Clouds
9:58 AM 72.3 °F - 64.0 °F 75% 30.01 in 10.0 mi SSE 11.5 mph - N/A   Mostly Cloudy
10:27 AM 71.6 °F - 64.4 °F 78% 30.04 in 10.0 mi SSE 10.4 mph - N/A Rain Light Rain
10:58 AM 69.1 °F - 65.1 °F 87% 30.03 in 10.0 mi SSE 8.1 mph - 0.00 in Rain Light Rain
11:00 AM 69.8 °F - 66.2 °F 88% 30.04 in 10.0 mi South 10.4 mph - N/A   Overcast
11:02 AM 69.8 °F - 66.2 °F 88% 30.04 in 10.0 mi South 10.4 mph - N/A Rain Light Rain
11:22 AM 68.0 °F - 62.6 °F 83% 30.06 in 3.0 mi West 11.5 mph - N/A Rain Rain
11:24 AM 68.0 °F - 62.6 °F 83% 30.06 in 1.5 mi Variable 6.9 mph - N/A Rain Heavy Rain
11:26 AM 66.2 °F - 62.6 °F 88% 30.05 in 1.2 mi NW 5.8 mph - N/A Rain Heavy Rain
11:30 AM 66.2 °F - 62.6 °F 88% 30.06 in 1.5 mi NW 3.5 mph - N/A Rain Light Rain
11:32 AM 66.2 °F - 62.6 °F 88% 30.05 in 1.8 mi NNW 3.5 mph - N/A Rain Light Rain
11:34 AM 66.2 °F - 62.6 °F 88% 30.05 in 3.0 mi North 4.6 mph - N/A Rain Light Rain
11:47 AM 66.2 °F - 64.4 °F 94% 30.04 in 9.0 mi NNE 8.1 mph - N/A Rain , Thunderstorm Light Thunderstorms and Rain
11:58 AM 65.7 °F - 64.2 °F 95% 30.03 in 10.0 mi ENE 6.9 mph - 0.00 in Rain , Thunderstorm Light Thunderstorms and Rain
12:02 PM 66.2 °F - 64.4 °F 94% 30.04 in 8.0 mi NE 5.8 mph - N/A Rain Light Rain
12:15 PM 66.2 °F - 64.4 °F 94% 30.03 in 10.0 mi NNE 8.1 mph - N/A   Overcast
12:58 PM 70.0 °F - 66.2 °F 88% 30.00 in 10.0 mi ENE 6.9 mph - 0.00 in   Scattered Clouds
1:58 PM 75.6 °F - 66.6 °F 74% 29.97 in 10.0 mi ESE 10.4 mph - N/A   Clear
2:58 PM 80.4 °F 81.6 °F 62.4 °F 54% 29.94 in 10.0 mi South 9.2 mph - N/A   Partly Cloudy
3:58 PM 80.8 °F 81.9 °F 62.4 °F 53% 29.92 in 10.0 mi SE 9.2 mph - N/A   Scattered Clouds
4:38 PM 84.2 °F 85.0 °F 62.6 °F 48% 29.92 in 10.0 mi South 11.5 mph - N/A   Scattered Clouds
4:58 PM 81.9 °F 82.6 °F 61.5 °F 50% 29.90 in 10.0 mi South 12.7 mph - N/A   Mostly Cloudy
5:58 PM 80.4 °F 81.6 °F 62.4 °F 54% 29.87 in 10.0 mi SSE 16.1 mph - N/A   Partly Cloudy
6:58 PM 78.6 °F - 61.7 °F 56% 29.86 in 10.0 mi SE 12.7 mph - N/A   Partly Cloudy
7:58 PM 77.4 °F - 62.6 °F 60% 29.87 in 10.0 mi SSE 11.5 mph - N/A   Partly Cloudy
8:19 PM 77.0 °F - 62.6 °F 61% 29.90 in 10.0 mi SSE 10.4 mph - N/A   Light Drizzle
8:32 PM 75.2 °F - 62.6 °F 65% 29.91 in 10.0 mi SSE 8.1 mph - N/A   Mostly Cloudy
8:58 PM 75.6 °F - 61.9 °F 62% 29.89 in 10.0 mi SSE 8.1 mph - 0.00 in   Mostly Cloudy
9:07 PM 75.2 °F - 62.6 °F 65% 29.91 in 10.0 mi SE 9.2 mph - N/A Rain Light Rain
9:18 PM 75.2 °F - 62.6 °F 65% 29.91 in 10.0 mi SE 6.9 mph - N/A   Scattered Clouds
9:58 PM 73.9 °F - 63.1 °F 69% 29.89 in 10.0 mi SE 9.2 mph - 0.00 in   Mostly Cloudy
10:31 PM 71.6 °F - 62.6 °F 73% 29.98 in 10.0 mi West 17.3 mph 26.5 mph N/A Rain , Thunderstorm Light Rain
10:34 PM 69.8 °F - 62.6 °F 78% 29.98 in 5.0 mi WSW 12.7 mph 26.5 mph N/A Rain , Thunderstorm Light Rain
10:37 PM 68.0 °F - 62.6 °F 83% 29.98 in 2.5 mi WSW 16.1 mph 26.5 mph N/A Rain , Thunderstorm Heavy Thunderstorms and Rain
10:39 PM 66.2 °F - 62.6 °F 88% 29.98 in 2.5 mi WSW 9.2 mph 26.5 mph N/A Rain , Thunderstorm Heavy Thunderstorms and Rain
10:47 PM 64.4 °F - 62.6 °F 94% 29.98 in 2.5 mi WSW 10.4 mph 18.4 mph N/A Rain , Thunderstorm Heavy Thunderstorms and Rain
10:55 PM 64.4 °F - 62.6 °F 94% 29.97 in 2.5 mi WSW 10.4 mph 18.4 mph N/A Rain , Thunderstorm Thunderstorms and Rain
10:57 PM 64.4 °F - 62.6 °F 94% 29.97 in 3.0 mi WSW 8.1 mph 18.4 mph N/A Rain , Thunderstorm Light Thunderstorms and Rain
10:58 PM 64.4 °F - 62.6 °F 94% 29.96 in 3.0 mi WSW 8.1 mph 18.4 mph 0.00 in Rain , Thunderstorm Light Thunderstorms and Rain
11:08 PM 64.4 °F - 62.6 °F 94% 29.97 in 4.0 mi SW 6.9 mph - N/A Rain Rain
11:34 PM 64.4 °F - 62.6 °F 94% 29.93 in 10.0 mi SE 6.9 mph - N/A   Mostly Cloudy
11:46 PM 64.4 °F - 64.4 °F 100% 29.93 in 10.0 mi East 4.6 mph - N/A Rain Light Rain
11:50 PM 64.4 °F - 64.4 °F 100% 29.92 in 10.0 mi East 4.6 mph - N/A   Scattered Clouds
11:58 PM 64.9 °F - 64.0 °F 97% 29.92 in 10.0 mi East 3.5 mph - 0.00 in   Scattered Clouds